sat.trackr.live / text

‹ back to catalog

STARLINK-33878

NORAD 63862 · 2025-093AC

PAYLOAD ACTIVE UNKNOWN

§ Identity

Operator
Country
US
Launch date
2025-05-07
Launch site
AFETR
Launch vehicle
Mass (kg)
RCS (m²)

Purposes: comms

External: N2YO · Heavens-Above · Gunter

§ Orbital elements

Epoch: 2026-05-25T00:25:02.617824Z

Period
94.27 min
Inclination
43.0025°
Eccentricity
0.0001601
Mean motion
15.27595341 rev/d
Perigee alt
481.9 km
Apogee alt
484.1 km
Semi-major
6,861.1 km
B*
5.1163e-4
RAAN
6.9557°
Arg perigee
283.6076°
Mean anomaly
76.4598°
Rev number
5,963

§ Raw data

STARLINK-338781 63862U 25093AC  26145.01739141  .00013850  00000+0  51163-3 0  99932 63862  43.0025   6.9557 0001601 283.6076  76.4598 15.27595341 59637

JSON: /api/v1/satellites/63862 · /tle

For live sub-satellite position, see the globe view (requires WebGL).

§ Visibility from observer

Set your observer location to see the next 7 days of passes ≥ 10°. The values pass through the URL so the page stays shareable.

No JS? Fill the form by hand. The geolocation button needs JavaScript.